Location: Bas-Clignon
(44.2000°N, 6.6333°E)
Time: 02:41:20
(UTC+00:00)

Spot 1 - Pass Details

Date: 03 February 2023
Orbit: 575 x 772 km, 98.8° (Epoch: 27 March)

Event Time Altitude Azimuth Distance (km) Brightness Sun altitude
Exits shadow 18:52:18 56° 8° (N) 691 4.1 -22.9°
Maximum altitude 18:53:08 85° 285° (WNW) 584 3.8 -23.1°
Drops below altitude 10° 18:57:11 10° 197° (SSW) 1,882 6.7 -23.8°
Sets 18:59:19 0° 197° (SSW) 2,785 7.6 -24.2°
